Location: Buch
(49.7331°N, 12.1098°E)
Time: 15:34:14
(UTC+00:00)

SL-24 R/B - RUBIN 2 - Pass Details

Date: 12 May 2021
Orbit: 583 x 1012 km, 64.6° (Epoch: 17 June)

Event Time Altitude Azimuth Distance (km) Brightness Sun altitude
Rises 21:35:21 0° 318° (NW) 3,424 8.7 -18.9°
Reaches altitude 10° 21:37:59 10° 315° (NW) 2,415 7.6 -19.0°
Maximum altitude 21:43:24 60° 237° (WSW) 854 4.1 -19.4°
Enters shadow 21:45:03 39° 177° (S) 1,071 4.3 -19.5°
